User: anonymous
Location: Caltech
(34.1382°N, 118.1253°W)
Time: 17:07:58
(UTC-07:00)
Language:

ALOS - Orbit

View from above orbital plane
View from above orbital plane
View from above satellite
View from above satellite

Ground track
Ground track

The orbit data is extracted from the following two-line orbital elements,

1 28931U 06002A   14264.18767178  .00000876  00000-0  18650-3 0   527
2 28931 097.9729 318.8581 0001229 153.1720 291.8395 14.61297433461340
Epoch (UTC): 21 September 2014 04:30:14
Eccentricity: 0.0001229
inclination: 97.9729°
perigee height: 688 km
apogee height: 690 km
right ascension of ascending node: 318.8581°
argument of perigee: 153.1720°
revolutions per day: 14.61297433
mean anomaly at epoch: 291.8395°
orbit number at epoch: 46134

The dashed part of the orbit path shows where the satellite is in the earth's shadow,  

DLR